Cloud_Cover
98 0 0 0 0 0 0 0 96 100 100 100 100 100 100 100 75 5 18 6 5 95 4 0 0 5 11 52 1 0 3 5 2 0 0 0 0 0 0 0 0 0 0 0
93 49 0 0 0 0 0 0 32 100 100 100 100 100 100 100 98 19 5 16 52 100 100 16 5 25 100 98 4 3 5 5 5 5 5 0 0 0 0 0 0 0 0 0
100 100 47 0 0 0 0 0 0 47 100 100 100 100 100 100 100 96 97 5 5 52 100 98 5 98 100 100 28 1 5 5 5 5 5 0 0 0 0 0 0 0 0 0
100 100 100 23 0 0 0 0 0 0 98 100 100 100 100 100 100 100 100 27 9 98 100 89 5 89 100 100 93 5 6 5 5 5 5 0 0 0 0 0 0 0 0 0
100 100 100 99 6 2 0 0 0 0 45 100 100 100 100 100 100 100 100 100 14 50 100 97 5 4 88 100 96 12 91 98 32 5 0 0 0 0 0 0 0 0 0 0
100 100 100 100 94 5 0 0 0 0 0 100 94 77 99 100 100 100 100 100 99 15 44 37 22 4 32 100 97 67 16 5 3 4 5 1 0 0 0 0 0 0 0 0
5 100 100 100 100 100 51 5 0 0 0 1 44 100 7 100 100 100 100 100 100 22 95 100 20 3 12 92 98 100 88 66 4 0 5 1 0 0 0 0 0 5 0 0
2 2 100 100 100 100 100 12 32 0 0 0 0 49 74 100 86 100 100 100 100 99 21 88 32 95 5 5 11 5 5 5 5 5 5 5 0 1 3 5 5 0 3 3
11 0 3 100 100 100 96 100 13 87 5 0 0 0 0 96 100 100 100 6 7 5 5 5 37 28 5 5 75 100 90 93 53 5 0 0 5 0 1 0 4 0 0 1
87 0 0 13 100 100 100 100 100 98 3 2 0 0 0 12 100 100 100 100 100 91 45 5 5 99 16 0 0 5 21 74 52 18 2 0 0 0 1 2 2 5 5 5
2 2 0 0 4 100 100 100 100 100 100 74 0 0 6 15 83 100 100 100 100 100 95 81 53 43 96 16 0 3 5 31 24 17 32 71 10 5 5 4 0 0 0 0
4 1 0 0 0 1 87 100 100 100 100 97 79 0 96 28 100 97 94 97 31 100 93 31 8 100 100 100 79 1 0 5 5 5 5 0 0 0 0 0 0 0 0 0
13 28 4 0 0 0 5 77 100 100 100 99 100 4 100 32 98 100 100 100 100 100 80 4 0 83 100 100 100 100 90 19 3 0 0 0 0 0 0 0 0 0 0 0
59 65 21 90 5 4 3 19 72 39 93 100 16 16 100 100 95 98 100 100 100 100 96 52 3 1 5 14 61 51 22 56 99 17 3 0 0 0 0 0 0 0 0 0
77 22 80 5 5 4 1 0 6 14 5 68 33 60 100 100 100 100 100 100 100 100 96 48 45 5 3 16 44 7 0 0 0 54 24 2 0 0 0 0 0 0 0 0
70 60 64 5 5 5 5 3 5 5 14 90 8 99 100 100 24 61 100 100 100 98 86 100 55 97 4 5 43 0 0 0 0 0 0 2 5 5 5 5 5 1 0 0
2 99 100 4 5 40 10 0 5 91 100 100 39 0 96 100 100 100 98 100 97 62 100 100 88 100 5 5 59 100 6 5 0 2 13 16 5 5 3 2 1 0 0 0
0 5 62 25 86 100 0 0 3 2 39 87 72 5 4 83 100 100 100 100 100 100 100 83 100 100 8 44 79 51 15 5 5 20 14 45 5 4 5 3 0 0 0 0
98 37 81 93 16 16 4 0 0 3 0 61 73 94 2 91 100 100 89 100 100 100 100 98 100 98 100 100 100 100 100 6 57 5 0 4 0 0 2 0 0 0 0 0
10 66 100 93 100 80 0 0 43 72 22 4 5 15 76 100 100 100 100 30 37 76 99 100 100 100 100 100 100 100 100 5 0 0 8 9 1 0 0 0 0 0 0 0
74 90 69 59 100 18 0 0 44 100 23 0 0 0 0 15 100 100 100 100 54 33 5 7 94 95 100 100 100 100 58 4 1 3 4 2 0 0 0 0 0 0 0 0
98 98 62 100 100 68 78 10 89 99 87 3 5 1 0 3 75 90 100 100 98 13 5 4 8 0 0 12 86 2 1 0 0 0 0 0 0 0 0 0 0 0 0 0
100 100 96 98 44 74 9 10 84 82 39 8 78 94 70 23 5 2 5 85 100 100 94 69 4 0 0 0 0 0 0 0 0 0 0 0 0 0 0 0 0 0 0 0
100 100 100 100 5 17 23 86 44 52 1 100 100 95 100 100 25 6 5 30 95 100 100 98 7 4 0 0 0 0 0 0 0 0 0 0 0 0 0 0 0 0 0 0
100 99 97 81 27 79 5 86 98 23 96 17 72 100 100 60 70 84 18 72 2 1 0 0 0 0 0 0 0 0 0 0 2 4 1 0 0 0 0 0 0 0 0 0
100 87 82 19 95 21 1 6 14 31 3 0 38 100 100 100 90 100 65 3 1 4 18 4 0 0 0 0 84 17 38 4 45 6 0 0 0 0 0 0 0 0 0 0